sat.trackr.live / text

‹ back to catalog

GRUS-1B

NORAD 47934 · 2021-022C

PAYLOAD ACTIVE UNKNOWN

§ Identity

Operator
Country
JPN
Launch date
2021-03-22
Launch site
TYMSC
Launch vehicle
Mass (kg)
RCS (m²)

External: N2YO · Heavens-Above · Gunter

§ Orbital elements

Epoch: 2026-09-20T04:15:32.626080Z

Period
96.07 min
Inclination
97.5226°
Eccentricity
0.0016443
Mean motion
14.98901021 rev/d
Perigee alt
558.9 km
Apogee alt
581.7 km
Semi-major
6,948.4 km
B*
-3.7452e-8
RAAN
143.1536°
Arg perigee
4.2466°
Mean anomaly
355.8894°
Rev number
30,012

§ Raw data

GRUS-1B1 47934U 21022C   26263.17746095 -.00000058  00000+0 -37452-7 0  99942 47934  97.5226 143.1536 0016443   4.2466 355.8894 14.98901021300126

JSON: /api/v1/satellites/47934 · /tle

For live sub-satellite position, see the globe view (requires WebGL).

§ Visibility from observer

Set your observer location to see the next 7 days of passes ≥ 10°. The values pass through the URL so the page stays shareable.

No JS? Fill the form by hand. The geolocation button needs JavaScript.

§ Radio — SatNOGS DB

ModeDescriptionDownlinkUplink
BPSK S-band telemetry 2.276 GHz
FM Telemetry 401.416 MHz

2 transmitters · refreshed weekly from db.satnogs.org